Latest Coastal Weather Observations for Smithton

IDT60701

Issued at 9:25 pm EST Thursday 31 July 2014 (issued every 10 minutes, with the page automatically refreshed every 10 minutes)

About coastal observations | Map of coastal stations | Coastal observations for TAS | Marine services | Other Formats
Station Details ID: 091292 Name: SMITHTON AERODROME Lat: -40.83 Lon: 145.08 Height: 7.5 m
Data from the previous 72 hours. | See also: Recent months at Smithton
Date/Time
EST
Temp

°C
Wind Pressure Rain
since 9am
mm
Weather Cloud Vis
km
Sea
Height
m
Swell
Dir
 
Speed
knots
Gust
knots
hPa Trend Height
m
Period
s
Dir
31/09:02pm 6.7 W 21 31 991.5 - 9.8 - - - - - - -
31/09:00pm 6.7 W 22 31 991.6 - 9.8 - - - - - - -
31/08:30pm 7.9 W 20 28 990.6 - 9.8 - - - - - - -
31/08:08pm 7.8 W 19 30 989.8 - 9.8 - - - - - - -
31/08:00pm 7.9 W 19 27 989.9 - 9.8 - - - - - - -
31/07:42pm 8.2 WNW 22 33 989.8 - 9.8 - - - - - - -
31/07:30pm 8.4 WNW 22 31 989.7 - 9.8 - - - - - - -
31/07:00pm 8.0 WNW 22 31 989.5 - 9.8 - - - - - - -
31/06:38pm 8.4 WNW 23 33 989.1 - 9.8 - - - - - - -
31/06:30pm 7.9 WNW 24 32 989.0 - 9.8 - - - - - - -
31/06:03pm 7.5 W 17 28 988.8 - 9.8 - - - - - - -
31/06:00pm 7.4 W 17 22 989.0 - 9.8 - - - - - - -
31/05:38pm 7.2 W 24 50 988.9 - 9.8 - - - - - - -
31/05:34pm 7.2 W 27 50 988.8 - 9.6 - - - - - - -
31/05:32pm 7.5 W 40 50 988.6 - 9.4 - - - - - - -
31/05:30pm 7.9 W 42 50 988.5 - 9.2 - - - - - - -
31/05:29pm 8.1 W 27 50 988.7 - 9.2 - - - - - - -
31/05:00pm 9.0 WNW 23 33 988.2 - 9.2 - - - - - - -
31/04:30pm 9.0 W 25 36 987.6 - 9.2 - - - - - - -
31/04:02pm 9.0 W 22 40 987.5 - 9.2 - - - - - - -
31/04:00pm 8.5 W 21 29 987.6 - 9.2 - - - - - - -
31/03:30pm 9.6 W 26 37 986.7 - 9.0 - - - - - - -
31/03:05pm 9.9 WNW 21 31 986.7 - 9.0 - - - - - - -
31/03:00pm 9.7 WNW 23 31 986.6 - 9.0 - - - - - - -
31/02:31pm 8.8 WNW 20 31 986.5 - 9.0 - - - - - - -
31/02:30pm 8.7 WNW 19 27 986.6 - 9.0 - - - - - - -
31/02:00pm 8.3 WNW 19 26 986.6 - 8.6 - - - - - - -
31/01:46pm 8.4 W 16 35 987.5 - 8.2 - - - - - - -
31/01:30pm 8.8 W 15 21 986.8 - 6.6 - - - - - - -
31/01:00pm 8.9 W 14 19 987.2 - 6.6 - - - - - - -
31/12:30pm 8.9 W 15 20 986.9 - 5.0 - - - - - - -
31/12:00pm 9.1 WSW 22 31 986.5 - 4.4 - - - - - - -
31/11:36am 10.0 W 27 37 986.7 - 3.4 - - - - - - -
31/11:30am 10.4 W 30 42 986.0 - 3.0 - - - - - - -
31/11:26am 11.4 WNW 32 47 986.1 - 1.2 - - - - - - -
31/11:00am 13.8 NNW 34 47 985.4 - 0.2 - - - - - - -
31/10:30am 13.8 NNW 33 48 986.6 - 0.2 - - - - - - -
31/10:00am 14.2 NNW 32 42 987.4 - 0.2 - - - - - - -
31/09:30am 13.6 NNW 30 43 988.3 - 0.2 - - - - - - -
31/09:05am 13.4 NNW 27 37 988.5 - 0.0 - - - - - - -
31/09:00am 13.6 NNW 28 36 988.7 - 16.8 - - - - - - -
31/08:37am 13.2 NNW 25 37 989.0 - 16.8 - - - - - - -
31/08:30am 13.1 NNW 24 30 989.2 - 16.8 - - - - - - -
31/08:00am 12.2 NW 23 36 990.3 - 16.8 - - - - - - -
31/07:30am 13.5 NNW 23 34 990.2 - 14.0 - - - - - - -
31/07:00am 13.3 NW 22 33 991.3 - 14.0 - - - - - - -
31/06:43am 13.5 NW 23 33 991.5 - 14.0 - - - - - - -
31/06:30am 13.5 NW 26 34 991.5 - 14.0 - - - - - - -
31/06:05am 13.6 NW 25 35 991.9 - 13.8 - - - - - - -
31/06:00am 13.6 NW 25 34 991.8 - 13.8 - - - - - - -
31/05:30am 13.6 NW 24 35 992.4 - 13.8 - - - - - - -
31/05:00am 13.3 NW 23 34 992.9 - 13.8 - - - - - - -
31/04:33am 13.5 NW 21 31 993.6 - 13.8 - - - - - - -
31/04:30am 13.6 NW 22 31 993.5 - 13.8 - - - - - - -
31/04:09am 13.6 NW 23 34 994.0 - 13.8 - - - - - - -
31/04:00am 13.6 NW 24 31 994.3 - 13.8 - - - - - - -
31/03:37am 13.6 NW 24 34 994.5 - 13.8 - - - - - - -
31/03:30am 13.5 NW 24 32 994.5 - 13.8 - - - - - - -
31/03:00am 13.4 NW 28 39 995.1 - 13.8 - - - - - - -
31/02:59am 13.5 NW 29 39 995.2 - 13.8 - - - - - - -
31/02:56am 13.7 NW 31 39 995.2 - 13.8 - - - - - - -
31/02:35am 13.3 NW 19 30 995.3 - 13.8 - - - - - - -
31/02:30am 13.0 WNW 18 25 995.5 - 13.6 - - - - - - -
31/02:00am 12.8 WNW 24 34 995.9 - 12.2 - - - - - - -
31/01:33am 13.0 WNW 25 38 996.4 - 11.6 - - - - - - -
31/01:30am 13.1 WNW 26 34 996.4 - 11.6 - - - - - - -
31/01:00am 12.7 WNW 22 33 996.6 - 11.6 - - - - - - -
31/12:30am 12.8 WNW 26 38 997.0 - 11.2 - - - - - - -
31/12:22am 12.7 WNW 20 32 997.2 - 9.6 - - - - - - -
31/12:00am 12.7 NW 20 27 997.5 - 6.8 - - - - - - -
 
Date/Time
EST
Temp

°C
Wind Pressure Rain
since 9am
mm
Weather Cloud Vis
km
Sea
Height
m
Swell
Dir
 
Speed
knots
Gust
knots
hPa Trend Height
m
Period
s
Dir
30/11:33pm 12.5 NW 21 34 998.1 - 6.2 - - - - - - -
30/11:30pm 12.6 NW 22 30 998.4 - 5.8 - - - - - - -
30/11:09pm 13.0 NW 21 34 998.3 - 4.6 - - - - - - -
30/11:00pm 13.3 NW 21 30 998.4 - 4.2 - - - - - - -
30/10:30pm 13.7 NW 24 35 998.8 - 4.2 - - - - - - -
30/10:03pm 13.7 NW 24 34 999.1 - 4.2 - - - - - - -
30/10:00pm 13.8 NW 25 34 999.0 - 4.2 - - - - - - -
30/09:46pm 13.4 WNW 20 30 999.0 - 4.2 - - - - - - -
30/09:30pm 13.3 NW 23 30 999.4 - 4.2 - - - - - - -
30/09:00pm 12.4 WNW 18 30 999.7 - 4.2 - - - - - - -
30/08:32pm 13.4 WNW 23 33 999.9 - 2.6 - - - - - - -
30/08:30pm 13.7 WNW 24 33 999.9 - 2.6 - - - - - - -
30/08:18pm 13.4 WNW 21 31 1000.0 - 2.6 - - - - - - -
30/08:00pm 13.7 WNW 25 32 1000.1 - 2.6 - - - - - - -
30/07:33pm 13.8 WNW 20 30 1000.3 - 2.6 - - - - - - -
30/07:30pm 13.8 WNW 21 30 1000.3 - 2.6 - - - - - - -
30/07:00pm 13.0 WNW 20 26 1000.3 - 2.6 - - - - - - -
30/06:30pm 12.7 WNW 25 32 1000.6 - 2.6 - - - - - - -
30/06:20pm 12.9 WNW 31 43 1000.6 - 2.6 - - - - - - -
30/06:18pm 12.9 WNW 31 35 1000.7 - 2.4 - - - - - - -
30/06:13pm 13.3 NW 19 33 1000.5 - 1.8 - - - - - - -
30/06:00pm 13.5 NW 19 26 1000.4 - 1.2 - - - - - - -
30/05:30pm 14.0 WNW 21 31 1000.7 - 1.2 - - - - - - -
30/05:00pm 14.1 WNW 22 32 1000.6 - 1.2 - - - - - - -
30/04:45pm 14.1 WNW 19 29 1000.7 - 1.2 - - - - - - -
30/04:30pm 14.3 WNW 24 33 1000.8 - 1.2 - - - - - - -
30/04:00pm 14.3 WNW 27 40 1000.7 - 1.2 - - - - - - -
30/03:30pm 14.0 WNW 21 31 1000.5 - 1.2 - - - - - - -
30/03:05pm 14.0 WNW 25 35 1000.7 - 0.6 - - - - - - -
30/03:00pm 14.5 WNW 24 33 1000.8 - 0.6 - - - - - - -
30/02:34pm 15.0 WNW 25 35 1000.8 - 0.6 - - - - - - -
30/02:30pm 15.0 WNW 26 33 1000.9 - 0.6 - - - - - - -
30/02:00pm 15.0 WNW 28 40 1000.8 - 0.6 - - - - - - -
30/01:30pm 14.1 WNW 24 37 1001.3 - 0.6 - - - - - - -
30/01:00pm 13.2 WNW 24 34 1001.7 - 0.4 - - - - - - -
30/12:46pm 13.4 WNW 20 30 1001.7 - 0.2 - - - - - - -
30/12:30pm 13.1 WNW 19 26 1002.1 - 0.0 - - - - - - -
30/12:00pm 13.8 WNW 21 27 1002.8 - 0.0 - - - - - - -
30/11:37am 14.2 WNW 19 30 1003.1 - 0.0 - - - - - - -
30/11:30am 14.2 WNW 21 27 1003.3 - 0.0 - - - - - - -
30/11:00am 13.8 WNW 21 31 1003.8 - 0.0 - - - - - - -
30/10:34am 13.7 WNW 19 29 1003.9 - 0.0 - - - - - - -
30/10:30am 13.5 WNW 17 23 1004.0 - 0.0 - - - - - - -
30/10:00am 13.6 WNW 20 27 1004.1 - 0.0 - - - - - - -
30/09:37am 13.4 WNW 18 28 1003.9 - 0.0 - - - - - - -
30/09:30am 13.2 WNW 18 23 1004.2 - 0.0 - - - - - - -
30/09:00am 13.1 WNW 16 24 1003.8 - 5.8 - - - - - - -
30/08:30am 12.8 WNW 18 25 1003.9 - 5.8 - - - - - - -
30/08:00am 12.2 WNW 13 18 1003.5 - 5.8 - - - - - - -
30/07:30am 12.1 WNW 16 21 1003.6 - 5.8 - - - - - - -
30/07:00am 12.1 WNW 17 21 1003.2 - 5.8 - - - - - - -
30/06:30am 12.4 WNW 14 19 1003.1 - 5.8 - - - - - - -
30/06:00am 12.1 WNW 15 24 1003.3 - 5.8 - - - - - - -
30/05:30am 12.0 W 14 22 1003.3 - 5.8 - - - - - - -
30/05:00am 11.6 W 15 20 1003.2 - 5.8 - - - - - - -
30/04:30am 11.4 W 15 21 1003.0 - 5.8 - - - - - - -
30/04:06am 12.0 W 18 29 1003.2 - 5.8 - - - - - - -
30/04:00am 11.6 W 18 26 1003.2 - 5.8 - - - - - - -
30/03:36am 11.9 W 21 31 1003.2 - 5.8 - - - - - - -
30/03:30am 11.7 W 19 28 1003.1 - 5.8 - - - - - - -
30/03:22am 11.9 W 17 28 1003.0 - 5.8 - - - - - - -
30/03:00am 11.7 W 19 27 1003.0 - 5.8 - - - - - - -
30/02:40am 11.8 W 20 30 1002.9 - 5.8 - - - - - - -
30/02:30am 11.8 W 21 29 1002.9 - 5.8 - - - - - - -
30/02:00am 11.8 W 23 34 1002.6 - 5.8 - - - - - - -
30/01:30am 12.3 W 24 38 1002.0 - 5.8 - - - - - - -
30/01:04am 12.6 W 23 33 1001.7 - 5.8 - - - - - - -
30/01:00am 12.5 W 24 33 1001.7 - 5.8 - - - - - - -
30/12:30am 12.9 W 25 35 1001.2 - 5.8 - - - - - - -
30/12:00am 12.6 W 24 34 1001.0 - 5.8 - - - - - - -
 
Date/Time
EST
Temp

°C
Wind Pressure Rain
since 9am
mm
Weather Cloud Vis
km
Sea
Height
m
Swell
Dir
 
Speed
knots
Gust
knots
hPa Trend Height
m
Period
s
Dir
29/11:30pm 13.0 W 25 35 1000.6 - 5.8 - - - - - - -
29/11:05pm 12.9 W 27 37 1000.4 - 5.8 - - - - - - -
29/11:00pm 12.9 W 26 34 1000.5 - 5.8 - - - - - - -
29/10:38pm 12.7 W 23 37 1000.1 - 5.8 - - - - - - -
29/10:36pm 12.4 W 20 44 1000.2 - 5.8 - - - - - - -
29/10:30pm 12.8 W 32 44 1000.0 - 5.8 - - - - - - -
29/10:00pm 13.0 W 27 40 999.5 - 5.8 - - - - - - -
29/09:30pm 12.8 W 34 48 999.3 - 5.8 - - - - - - -
29/09:00pm 13.0 W 30 42 999.0 - 5.8 - - - - - - -
29/08:30pm 12.9 W 31 45 998.8 - 5.8 - - - - - - -
29/08:00pm 13.2 W 36 55 997.8 - 5.8 - - - - - - -
29/07:52pm 13.2 W 31 49 998.3 - 5.8 - - - - - - -
29/07:30pm 12.7 W 26 37 997.6 - 5.8 - - - - - - -
29/07:00pm 12.2 W 25 35 997.9 - 5.8 - - - - - - -
29/06:30pm 13.5 W 26 36 996.5 - 5.4 - - - - - - -
29/06:01pm 14.0 W 26 37 996.4 - 5.4 - - - - - - -
29/06:00pm 13.8 W 26 33 996.4 - 5.4 - - - - - - -
29/05:30pm 13.8 WNW 33 49 995.6 - 5.4 - - - - - - -
29/05:00pm 13.9 WNW 31 45 995.3 - 5.4 - - - - - - -
29/04:30pm 13.1 W 26 37 995.1 - 5.4 - - - - - - -
29/04:00pm 13.2 WNW 27 41 994.6 - 3.0 - - - - - - -
29/03:30pm 14.4 WNW 28 38 995.1 - 2.0 - - - - - - -
29/03:00pm 13.7 WNW 31 43 994.6 - 2.0 - - - - - - -
29/02:30pm 14.3 WNW 26 37 994.7 - 1.8 - - - - - - -
29/02:01pm 13.8 WNW 25 35 995.3 - 1.8 - - - - - - -
29/02:00pm 13.9 WNW 26 35 995.3 - 1.8 - - - - - - -
29/01:32pm 13.2 WNW 25 35 995.5 - 1.8 - - - - - - -
29/01:30pm 13.1 WNW 25 34 995.7 - 1.8 - - - - - - -
29/01:02pm 13.0 WNW 22 33 996.1 - 1.8 - - - - - - -
29/01:00pm 13.0 WNW 23 32 996.2 - 1.8 - - - - - - -
29/12:30pm 12.6 WNW 22 32 996.7 - 1.8 - - - - - - -
29/12:02pm 12.2 W 18 30 997.1 - 1.6 - - - - - - -
29/12:00pm 12.0 W 17 22 997.1 - 1.6 - - - - - - -
29/11:36am 11.6 W 19 29 997.5 - 1.0 - - - - - - -
29/11:30am 11.3 W 22 31 997.6 - 1.0 - - - - - - -
29/11:20am 11.1 W 21 39 997.7 - 1.0 - - - - - - -
29/11:19am 11.1 W 23 46 997.6 - 1.0 - - - - - - -
29/11:10am 11.7 W 36 46 997.5 - 0.4 - - - - - - -
29/11:09am 12.0 W 35 42 997.6 - 0.4 - - - - - - -
29/11:00am 14.2 WNW 24 35 996.8 - 0.0 - - - - - - -
29/10:30am 13.9 WNW 21 31 997.1 - 0.0 - - - - - - -
29/10:23am 13.8 NW 20 30 997.1 - 0.0 - - - - - - -
29/10:00am 13.8 WNW 19 26 997.6 - 0.0 - - - - - - -
29/09:40am 14.0 WNW 23 33 997.6 - 0.0 - - - - - - -
29/09:30am 14.1 WNW 25 33 997.6 - 0.0 - - - - - - -
29/09:16am 13.9 WNW 23 33 997.8 - 0.0 - - - - - - -
29/09:00am 13.8 WNW 24 32 997.7 - 26.8 - - - - - - -
29/08:30am 13.7 WNW 27 37 997.6 - 26.8 - - - - - - -
29/08:00am 13.6 WNW 27 37 997.6 - 26.8 - - - - - - -
29/07:47am 13.6 WNW 25 35 997.5 - 26.6 - - - - - - -
29/07:30am 13.3 NW 28 35 997.3 - 26.6 - - - - - - -
29/07:00am 12.9 NW 20 30 997.2 - 26.6 - - - - - - -
29/06:59am 12.9 NW 20 33 997.2 - 26.6 - - - - - - -
29/06:50am 12.4 W 20 33 997.0 - 26.4 - - - - - - -
29/06:48am 12.7 W 17 28 997.1 - 26.4 - - - - - - -
29/06:33am 12.9 NW 24 37 997.1 - 18.8 - - - - - - -
29/06:30am 13.0 NW 23 32 997.6 - 18.0 - - - - - - -
29/06:00am 12.6 NNW 22 34 997.6 - 17.2 - - - - - - -
29/05:52am 12.7 NNW 23 34 997.9 - 16.2 - - - - - - -
29/05:46am 12.5 NNW 20 25 997.5 - 15.8 - - - - - - -
29/05:30am 12.5 NW 20 30 998.3 - 15.4 - - - - - - -
29/05:04am 12.8 NW 19 29 998.8 - 13.6 - - - - - - -
29/05:00am 12.2 NW 19 29 998.8 - 13.6 - - - - - - -
29/04:55am 12.0 NW 22 29 998.9 - 13.6 - - - - - - -
29/04:51am 12.2 W 23 29 998.8 - 12.2 - - - - - - -
29/04:30am 12.8 NW 20 30 999.3 - 7.4 - - - - - - -
29/04:29am 12.8 NW 20 30 999.3 - 7.4 - - - - - - -
29/04:00am 12.8 NW 21 30 999.7 - 7.2 - - - - - - -
29/03:46am 12.6 NW 19 33 1000.0 - 7.2 - - - - - - -
29/03:42am 12.8 NW 30 33 1000.0 - 7.2 - - - - - - -
29/03:33am 12.5 NW 19 30 1000.0 - 7.0 - - - - - - -
29/03:30am 12.5 NW 18 26 1000.2 - 6.8 - - - - - - -
29/03:00am 12.6 NNW 16 22 1000.6 - 6.2 - - - - - - -
29/02:30am 12.3 NNW 17 23 1001.2 - 6.2 - - - - - - -
29/02:00am 12.2 NNW 19 26 1001.9 - 6.2 - - - - - - -
29/01:30am 12.0 NNW 16 23 1002.2 - 6.2 - - - - - - -
29/01:00am 12.0 NNW 21 27 1002.8 - 6.0 - - - - - - -
29/12:30am 12.4 NNW 17 27 1003.5 - 5.6 - - - - - - -
29/12:29am 12.4 NNW 17 27 1003.5 - 5.6 - - - - - - -
29/12:00am 11.9 NW 12 19 1004.3 - 5.6 - - - - - - -
 
Date/Time
EST
Temp

°C
Wind Pressure Rain
since 9am
mm
Weather Cloud Vis
km
Sea
Height
m
Swell
Dir
 
Speed
knots
Gust
knots
hPa Trend Height
m
Period
s
Dir
28/11:30pm 11.8 NW 19 25 1004.4 - 5.6 - - - - - - -
28/11:17pm 12.2 NW 16 26 1004.5 - 5.6 - - - - - - -
28/11:00pm 11.1 WNW 17 25 1004.9 - 5.6 - - - - - - -
28/10:50pm 10.5 WNW 16 26 1004.6 - 5.6 - - - - - - -
28/10:42pm 11.1 WNW 20 26 1005.1 - 4.8 - - - - - - -
28/10:30pm 11.4 WSW 17 24 1005.1 - 3.0 - - - - - - -
28/10:00pm 12.4 WNW 14 19 1005.3 - 1.4 - - - - - - -
28/09:30pm 12.6 NW 12 18 1005.2 - 1.4 - - - - - - -

Other Formats:

Comma delimited format used in spreadsheet applications
http://www.bom.gov.au/fwo/IDT60701/IDT60701.94953.axf

JavaScript Object Notation format (JSON) in row-major order
http://www.bom.gov.au/fwo/IDT60701/IDT60701.94953.json